Location: Clinton NY
(43.0598°N, 75.3602°W)
Time: 14:58:11
(UTC-05:00)

Amateur Radio Satellites - All Passes

Search period start: 01 March 2017 14:28
Search period end: 02 March 2017 14:28
Location: Clinton NY, 43.0598°N, 75.3602°W

Satellite Date Start Highest point End Downlink Frequencies (MHz)
Time Altitude Azimuth
AO-7 01 Mar 14:30:32 14:38:55 84° 70° (ENE) 14:47:18 .
BEESAT 3 01 Mar 14:48:29 14:51:31 21° 247° (WSW) 14:54:32 437.485
NO-84 01 Mar 14:54:09 14:56:46 26° 130° (SE) 14:59:34 435.350 FM
ITAMSAT 1 01 Mar 15:22:56 15:27:21 28° 265° (W) 15:31:50 435.822/435.867
PCSat 01 Mar 15:36:00 15:41:24 71° 302° (WNW) 15:46:51 145.827
BEESAT 2 01 Mar 15:37:37 15:40:07 16° 249° (WSW) 15:42:36 435.950
RS-15 01 Mar 15:39:53 15:50:40 43° 107° (ESE) 16:01:49 29.354- 29.394
KKS-1 01 Mar 15:41:29 15:44:54 21° 94° (E) 15:48:18 437.445
MOZHAYETS 4 01 Mar 15:44:03 15:48:41 90° 284° (WNW) 15:53:16
ITUPSAT 1 01 Mar 16:02:06 16:06:07 27° 294° (WNW) 16:10:06 437.325
STARS 01 Mar 16:02:48 16:05:33 16° 92° (E) 16:08:15 437.465
BEESAT 01 Mar 16:05:36 16:09:27 25° 295° (WNW) 16:13:16 436.000
XW-2C 01 Mar 16:05:41 16:06:46 11° 63° (ENE) 16:07:51 145.795 - 145.815
LilacSat-2 01 Mar 16:25:44 16:28:32 19° 67° (ENE) 16:31:21 437.200
AO-7 01 Mar 16:26:38 16:32:35 21° 269° (W) 16:38:34 .
NO-84 01 Mar 16:31:17 16:34:16 34° 330° (NNW) 16:37:31 435.350 FM
M-CUBED/EXP-1 PRIME 01 Mar 16:31:52 16:32:35 10° 97° (E) 16:33:19 437.505
DOVE 4 01 Mar 16:42:42 16:46:27 33° 69° (ENE) 16:50:16 437.250
CUBESAT XI-V 01 Mar 16:56:05 17:00:43 83° 105° (ESE) 17:05:18 437.345
KAITUO 1B 01 Mar 17:02:25 17:05:58 38° 72° (ENE) 17:09:32 145.475/437.950
CUTE-I 01 Mar 17:03:59 17:09:10 54° 71° (ENE) 17:14:24 437.470
XW-2F 01 Mar 17:14:56 17:18:44 67° 76° (ENE) 17:22:34 145.980 - 146.000
KKS-1 01 Mar 17:17:25 17:21:35 38° 290° (WNW) 17:25:44 437.445
XW-2D 01 Mar 17:22:32 17:26:23 88° 77° (ENE) 17:30:16 145.860 - 145.880
PCSat 01 Mar 17:22:43 17:25:48 15° 323° (NW) 17:28:54 145.827
MOZHAYETS 4 01 Mar 17:24:01 17:25:05 11° 301° (WNW) 17:26:09
XW-2B 01 Mar 17:27:43 17:31:33 83° 257° (WSW) 17:35:27 145.730 - 145.750
XW-2A 01 Mar 17:30:19 17:32:14 14° 66° (ENE) 17:34:08 145.665 - 145.685
NUDT-PHONESAT 01 Mar 17:31:10 17:34:57 89° 84° (E) 17:38:46 437.300
XW-2C 01 Mar 17:36:37 17:40:26 63° 259° (W) 17:44:17 145.795 - 145.815
STARS 01 Mar 17:37:51 17:42:10 50° 288° (WNW) 17:46:27 437.465
SEEDS 01 Mar 17:46:28 17:48:24 13° 63° (ENE) 17:50:21 437.485
HO-68 01 Mar 17:48:13 17:54:46 40° 63° (ENE) 18:01:19 435.675
RS-15 01 Mar 17:50:43 18:02:39 65° 311° (NW) 18:15:01 29.354- 29.394
LilacSat-2 01 Mar 17:59:05 18:02:36 33° 263° (W) 18:06:08 437.200
M-CUBED/EXP-1 PRIME 01 Mar 18:03:25 18:07:19 70° 290° (WNW) 18:11:31 437.505
CUBEBUG 2 01 Mar 18:05:38 18:08:24 16° 62° (ENE) 18:11:14 437.445
NO-84 01 Mar 18:10:55 18:12:50 14° 352° (N) 18:14:51 435.350 FM
DOVE 4 01 Mar 18:21:09 18:24:16 20° 267° (W) 18:27:27 437.250
CUTE 1.7 + AOD 2 01 Mar 18:31:23 18:35:34 57° 74° (ENE) 18:39:46 437.475
UWE-3 01 Mar 18:32:18 18:35:29 19° 64° (ENE) 18:38:43 435.000/436.395/437.385
CUBESAT XI-V 01 Mar 18:35:50 18:37:24 12° 300° (WNW) 18:38:59 437.345
KAITUO 1B 01 Mar 18:37:52 18:40:09 15° 268° (W) 18:42:28 145.475/437.950
ZACube-1 01 Mar 18:43:02 18:45:35 15° 62° (ENE) 18:48:09 437.345
CUTE-I 01 Mar 18:45:39 18:49:32 20° 268° (W) 18:53:28 437.470
AAUSAT CUBESAT 2 01 Mar 18:54:36 18:58:19 33° 70° (ENE) 19:02:03 437.432
XW-2A 01 Mar 19:01:34 19:04:42 34° 262° (W) 19:07:52 145.665 - 145.685
STRAND 1 01 Mar 19:17:27 19:22:33 59° 101° (E) 19:27:36 437.568
SEEDS 01 Mar 19:19:23 19:23:35 63° 259° (W) 19:27:47 437.485
AO-73 01 Mar 19:26:41 19:30:48 36° 70° (ENE) 19:34:58 145.935
Oscar 11 01 Mar 19:27:32 19:31:23 31° 69° (ENE) 19:35:13 .
YUBILEINY 01 Mar 19:31:00 19:37:59 26° 65° (ENE) 19:44:54 435.215
HO-68 01 Mar 19:35:42 19:42:25 42° 261° (W) 19:49:10 435.675
CUBEBUG 2 01 Mar 19:40:04 19:44:30 59° 260° (W) 19:49:07 437.445
DELFI C3 01 Mar 19:45:26 19:47:38 15° 64° (ENE) 19:49:51 145.870
NO-84 01 Mar 19:49:25 19:51:45 16° 13° (NNE) 19:54:11 435.350 FM
SO-50 01 Mar 20:01:32 20:04:54 20° 112° (ESE) 20:08:16 436.795
UWE-3 01 Mar 20:07:11 20:11:32 48° 261° (W) 20:16:02 435.000/436.395/437.385
RS-15 01 Mar 20:07:55 20:18:15 30° 341° (NNW) 20:28:41 29.354- 29.394
CUTE 1.7 + AOD 2 01 Mar 20:09:44 20:11:45 13° 270° (W) 20:13:47 437.475
ZACube-1 01 Mar 20:16:51 20:21:18 63° 259° (W) 20:25:52 437.345
AAUSAT CUBESAT 2 01 Mar 20:30:41 20:33:51 21° 267° (W) 20:37:01 437.432
O/OREOS (USA 219) 01 Mar 20:35:01 20:37:30 15° 99° (E) 20:39:58 437.305
PRISM 01 Mar 20:45:04 20:48:03 19° 94° (E) 20:51:02 437.425
TIGRISAT 01 Mar 20:51:23 20:51:40 10° 87° (E) 20:51:56 435.000
UNISAT 6 01 Mar 20:51:30 20:52:59 11° 88° (E) 20:54:27 437.425
STRAND 1 01 Mar 20:57:40 21:01:15 19° 299° (WNW) 21:04:50 437.568
AO-73 01 Mar 21:03:30 21:07:06 23° 267° (W) 21:10:46 145.935
Oscar 11 01 Mar 21:03:56 21:07:31 25° 266° (W) 21:11:07 .
DELFI C3 01 Mar 21:18:15 21:22:03 47° 261° (W) 21:25:53 145.870
NO-84 01 Mar 21:26:29 21:30:13 41° 33° (NNE) 21:34:13 435.350 FM
YUBILEINY 01 Mar 21:26:58 21:35:39 73° 266° (W) 21:44:17 435.215
SO-50 01 Mar 21:40:27 21:45:01 52° 308° (NW) 21:49:33 436.795
FO-29 01 Mar 21:47:37 21:53:55 29° 90° (E) 21:59:39 435.910
LO-87 01 Mar 22:04:41 22:08:12 72° 74° (ENE) 22:11:45 145.935 - 145.965
ESTCUBE 1 01 Mar 22:11:34 22:15:51 45° 71° (ENE) 22:20:09 437.505/2401.250
O/OREOS (USA 219) 01 Mar 22:11:59 22:16:22 56° 296° (WNW) 22:20:50 437.305
VELOX 1 01 Mar 22:16:35 22:19:31 18° 64° (ENE) 22:22:29 145.980
PRISM 01 Mar 22:19:43 22:23:26 35° 290° (WNW) 22:27:10 437.425
TIGRISAT 01 Mar 22:24:15 22:28:59 85° 282° (WNW) 22:33:35 435.000
UNISAT 6 01 Mar 22:25:32 22:30:15 77° 285° (WNW) 22:34:52 437.425
RS-15 01 Mar 22:25:42 22:36:03 29° 17° (NNE) 22:46:13 29.354- 29.394
NANOSAT C BR1 01 Mar 22:38:47 22:40:14 11° 89° (E) 22:41:41 145.865
PCSat 01 Mar 22:40:20 22:44:26 21° 42° (NE) 22:48:31 145.827
POLYITAN 1 01 Mar 22:43:20 22:45:44 15° 91° (E) 22:48:07 437.675
QB50P2 01 Mar 22:46:12 22:49:00 17° 92° (E) 22:51:47 145.880/145.840
AIST 2D 01 Mar 22:47:56 22:50:53 24° 95° (E) 22:53:49 435.315
NO-84 01 Mar 23:04:12 23:07:53 33° 228° (SW) 23:11:45 435.350 FM
SPROUT 01 Mar 23:21:04 23:25:17 66° 74° (ENE) 23:29:33 437.525
SO-50 01 Mar 23:25:07 23:26:32 11° 329° (NNW) 23:27:56 436.795
DX 1 01 Mar 23:26:11 23:30:14 41° 71° (ENE) 23:34:19 434.975-435.025
YUBILEINY 01 Mar 23:26:55 23:30:47 14° 287° (WNW) 23:34:39 435.215
UKube-1 01 Mar 23:28:18 23:32:04 31° 68° (ENE) 23:35:54 .
FO-29 01 Mar 23:32:01 23:39:22 57° 291° (WNW) 23:45:56 435.910
DUCHIFAT 1 01 Mar 23:41:34 23:45:46 52° 100° (E) 23:49:54 145.980
50 SAT 01 Mar 23:44:41 23:48:09 73° 258° (WSW) 23:51:39 437.505
ESTCUBE 1 01 Mar 23:49:45 23:52:53 18° 268° (W) 23:55:59 437.505/2401.250
VELOX 1 01 Mar 23:51:25 23:55:38 47° 261° (W) 23:59:52 145.980
EO-79 01 Mar 23:58:22 00:02:40 85° 284° (WNW) 00:06:57 145.935-145.965
TIGRISAT 02 Mar 00:03:53 00:04:51 11° 302° (WNW) 00:05:47 435.000
NANOSAT C BR1 02 Mar 00:12:08 00:16:23 65° 286° (WNW) 00:20:35 145.865
POLYITAN 1 02 Mar 00:17:39 00:21:50 52° 287° (WNW) 00:25:59 437.675
BUGSAT 1 02 Mar 00:17:51 00:21:58 45° 99° (E) 00:26:02 437.445
QB50P2 02 Mar 00:20:55 00:25:01 44° 288° (WNW) 00:29:05 145.880/145.840
AIST 2D 02 Mar 00:21:17 00:24:00 21° 291° (WNW) 00:26:42 435.315
PCSat 02 Mar 00:22:58 00:28:24 74° 243° (WSW) 00:33:48 145.827
RS-15 02 Mar 00:39:32 00:51:49 62° 47° (NE) 01:03:35 29.354- 29.394
Gurwin Techsat 1B 02 Mar 00:57:07 01:00:57 20° 92° (E) 01:04:44 435.225
SPROUT 02 Mar 01:00:16 01:01:39 11° 271° (W) 01:03:02 437.525
DX 1 02 Mar 01:03:34 01:06:36 18° 267° (W) 01:09:39 434.975-435.025
UKube-1 02 Mar 01:04:38 01:08:07 24° 265° (W) 01:11:38 .
Oscar 19 02 Mar 01:09:32 01:14:27 44° 99° (E) 01:19:20 437.125/150
MOZHAYETS 4 02 Mar 01:13:00 01:14:33 12° 59° (ENE) 01:16:07
DUCHIFAT 1 02 Mar 01:18:27 01:21:01 16° 297° (WNW) 01:23:33 145.980
FO-29 02 Mar 01:19:45 01:22:38 13° 312° (NW) 01:25:28 435.910
ITUPSAT 1 02 Mar 01:31:24 01:35:59 46° 70° (ENE) 01:40:35 437.325
BEESAT 02 Mar 01:34:25 01:39:02 50° 71° (ENE) 01:43:41 436.000
AO-85 02 Mar 01:45:22 01:47:25 13° 110° (ESE) 01:49:25 145.980
BUGSAT 1 02 Mar 01:54:07 01:56:58 18° 296° (WNW) 01:59:49 437.445
ITAMSAT 1 02 Mar 01:56:56 01:58:51 12° 88° (E) 02:00:44 435.822/435.867
CUBESAT XI-V 02 Mar 02:26:49 02:27:55 11° 59° (ENE) 02:29:00 437.345
AO-7 02 Mar 02:32:02 02:38:40 26° 93° (E) 02:45:13 .
Gurwin Techsat 1B 02 Mar 02:36:01 02:41:14 55° 289° (WNW) 02:46:24 435.225
KKS-1 02 Mar 02:40:30 02:43:56 23° 65° (ENE) 02:47:23 437.445
MOZHAYETS 4 02 Mar 02:46:21 02:51:00 86° 257° (WSW) 02:55:41
Oscar 19 02 Mar 02:49:26 02:53:30 24° 296° (WNW) 02:57:35 437.125/150
RS-15 02 Mar 02:52:41 03:03:57 45° 251° (WSW) 03:14:47 29.354- 29.394
STARS 02 Mar 03:00:31 03:03:19 17° 63° (ENE) 03:06:08 437.465
ITUPSAT 1 02 Mar 03:10:29 03:14:01 20° 267° (W) 03:17:35 437.325
BEESAT 02 Mar 03:13:46 03:17:04 18° 268° (W) 03:20:24 436.000
M-CUBED/EXP-1 PRIME 02 Mar 03:18:50 03:20:13 12° 58° (ENE) 03:21:37 437.505
AO-85 02 Mar 03:22:52 03:27:22 71° 305° (NW) 03:31:35 145.980
ITAMSAT 1 02 Mar 03:33:42 03:38:58 86° 286° (WNW) 03:44:12 435.822/435.867
CUBESAT XI-V 02 Mar 03:59:53 04:04:33 89° 77° (ENE) 04:09:13 437.345
KKS-1 02 Mar 04:16:12 04:20:17 36° 262° (W) 04:24:24 437.445
AO-7 02 Mar 04:23:49 04:32:06 72° 292° (WNW) 04:40:19 .
SO-50 02 Mar 04:30:52 04:34:39 26° 44° (NE) 04:38:24 436.795
STARS 02 Mar 04:35:01 04:39:16 50° 260° (W) 04:43:34 437.465
BEESAT 3 02 Mar 04:38:09 04:41:53 47° 119° (ESE) 04:45:42 437.485
M-CUBED/EXP-1 PRIME 02 Mar 04:51:18 04:54:22 39° 256° (WSW) 04:57:29 437.505
STRAND 1 02 Mar 04:58:30 05:00:50 13° 58° (ENE) 05:03:10 437.568
AO-85 02 Mar 05:06:52 05:08:28 12° 324° (NW) 05:10:02 145.980
XW-2C 02 Mar 05:10:02 05:11:42 12° 90° (E) 05:13:20 145.795 - 145.815
ISS 02 Mar 05:14:00 05:16:23 19° 134° (SE) 05:18:48 437.550
ITAMSAT 1 02 Mar 05:15:25 05:17:37 13° 303° (WNW) 05:19:50 435.822/435.867
CUTE-I 02 Mar 05:20:51 05:24:45 20° 92° (E) 05:28:37 437.470
Tancredo 1 02 Mar 05:25:20 05:28:02 25° 136° (SE) 05:30:46 437.200
BEESAT 2 02 Mar 05:28:07 05:32:02 68° 120° (ESE) 05:36:02 435.950
LilacSat-2 02 Mar 05:31:28 05:34:35 23° 95° (E) 05:37:40 437.200
KAITUO 1B 02 Mar 06:06:30 06:10:10 47° 99° (E) 06:13:46 145.475/437.950
SO-50 02 Mar 06:11:00 06:15:17 43° 242° (WSW) 06:19:30 436.795
DOVE 4 02 Mar 06:16:28 06:21:20 87° 102° (ESE) 06:26:28 437.250
BEESAT 3 02 Mar 06:16:49 06:19:44 20° 317° (NW) 06:22:42 437.485
AO-7 02 Mar 06:18:19 06:23:29 18° 313° (NW) 06:28:38 .
XW-2F 02 Mar 06:20:16 06:24:05 87° 102° (ESE) 06:27:50 145.980 - 146.000
XW-2A 02 Mar 06:23:47 06:25:24 13° 92° (E) 06:27:00 145.665 - 145.685
XW-2D 02 Mar 06:28:19 06:32:07 70° 284° (WNW) 06:35:52 145.860 - 145.880
XW-2B 02 Mar 06:33:31 06:37:18 62° 285° (WNW) 06:41:02 145.730 - 145.750
STRAND 1 02 Mar 06:34:05 06:39:14 89° 252° (WSW) 06:44:27 437.568
NUDT-PHONESAT 02 Mar 06:34:43 06:38:28 73° 285° (WNW) 06:42:11 437.300
O/OREOS (USA 219) 02 Mar 06:41:50 06:46:03 35° 60° (ENE) 06:50:15 437.305
XW-2C 02 Mar 06:42:30 06:46:11 47° 287° (WNW) 06:49:49 145.795 - 145.815
ISS 02 Mar 06:49:20 06:52:36 59° 331° (NNW) 06:55:53 437.550
CUTE-I 02 Mar 06:59:52 07:05:08 56° 289° (WNW) 07:10:22 437.470
Tancredo 1 02 Mar 07:01:00 07:04:09 45° 333° (NNW) 07:07:18 437.200
HO-68 02 Mar 07:01:55 07:08:27 37° 97° (E) 07:14:57 435.675
SEEDS 02 Mar 07:02:57 07:05:59 19° 93° (E) 07:09:00 437.485
LilacSat-2 02 Mar 07:05:38 07:08:49 25° 291° (WNW) 07:11:59 437.200
BEESAT 2 02 Mar 07:07:44 07:10:15 16° 320° (NW) 07:12:47 435.950
CUBEBUG 2 02 Mar 07:30:09 07:34:18 29° 94° (E) 07:38:21 437.445
PRISM 02 Mar 07:35:46 07:38:22 17° 64° (ENE) 07:40:58 437.425
KAITUO 1B 02 Mar 07:41:59 07:43:46 13° 296° (WNW) 07:45:33 145.475/437.950
TIGRISAT 02 Mar 07:50:28 07:51:52 11° 59° (ENE) 07:53:16 435.000
CUTE 1.7 + AOD 2 02 Mar 07:50:52 07:55:06 80° 283° (WNW) 07:59:17 437.475
UNISAT 6 02 Mar 07:51:19 07:53:14 12° 60° (ENE) 07:55:09 437.425
XW-2A 02 Mar 07:55:07 07:58:21 37° 288° (WNW) 08:01:33 145.665 - 145.685
UWE-3 02 Mar 07:55:55 08:00:07 33° 96° (E) 08:04:14 435.000/436.395/437.385
DOVE 4 02 Mar 07:56:22 07:58:24 13° 299° (WNW) 08:00:28 437.250
FO-29 02 Mar 08:01:24 08:06:12 18° 53° (NE) 08:11:07 435.910
ZACube-1 02 Mar 08:04:48 08:08:29 24° 93° (E) 08:12:06 437.345
AAUSAT CUBESAT 2 02 Mar 08:10:33 08:14:35 54° 100° (E) 08:18:36 437.432
STRAND 1 02 Mar 08:17:55 08:19:07 11° 273° (W) 08:20:20 437.568
O/OREOS (USA 219) 02 Mar 08:21:32 08:25:17 25° 257° (WSW) 08:29:01 437.305
ISS 02 Mar 08:27:01 08:29:36 20° 350° (N) 08:32:10 437.550
YUBILEINY 02 Mar 08:34:03 08:41:05 28° 81° (E) 08:48:05 435.215
SEEDS 02 Mar 08:37:58 08:41:47 36° 290° (WNW) 08:45:35 437.485
Tancredo 1 02 Mar 08:38:35 08:40:59 19° 353° (N) 08:43:23 437.200
Oscar 11 02 Mar 08:49:09 08:53:25 55° 100° (E) 08:57:37 .
AO-73 02 Mar 08:49:25 08:53:55 65° 100° (E) 08:58:17 145.935
HO-68 02 Mar 08:49:32 08:56:15 45° 295° (WNW) 09:02:56 435.675
DELFI C3 02 Mar 08:54:58 08:57:49 19° 93° (E) 09:00:39 145.870
CUBEBUG 2 02 Mar 09:06:41 09:10:52 31° 292° (WNW) 09:14:58 437.445
PRISM 02 Mar 09:09:27 09:13:19 43° 261° (W) 09:17:13 437.425
TIGRISAT 02 Mar 09:23:13 09:27:47 89° 268° (W) 09:32:28 435.000
UNISAT 6 02 Mar 09:24:40 09:29:14 80° 257° (WSW) 09:33:55 437.425
AIST 2D 02 Mar 09:24:58 09:26:15 12° 64° (ENE) 09:27:33 435.315
UWE-3 02 Mar 09:32:33 09:36:26 27° 293° (WNW) 09:40:14 435.000/436.395/437.385
NANOSAT C BR1 02 Mar 09:32:46 09:33:44 11° 60° (ENE) 09:34:42 145.865
POLYITAN 1 02 Mar 09:37:25 09:39:30 13° 62° (ENE) 09:41:35 437.675
QB50P2 02 Mar 09:40:12 09:42:40 15° 63° (ENE) 09:45:09 145.880/145.840
ZACube-1 02 Mar 09:40:43 09:44:49 34° 291° (WNW) 09:48:49 437.345
FO-29 02 Mar 09:42:31 09:49:54 77° 73° (ENE) 09:57:47 435.910
AAUSAT CUBESAT 2 02 Mar 09:47:26 09:49:36 14° 297° (WNW) 09:51:45 437.432
ISS 02 Mar 10:04:20 10:06:54 20° 10° (N) 10:09:29 437.550
AO-85 02 Mar 10:13:57 10:16:24 16° 40° (NE) 10:18:50 145.980
Tancredo 1 02 Mar 10:15:27 10:18:03 22° 13° (NNE) 10:20:38 437.200
Oscar 11 02 Mar 10:26:37 10:29:05 15° 297° (WNW) 10:31:32 .
AO-73 02 Mar 10:27:15 10:29:35 14° 298° (WNW) 10:31:53 145.935
YUBILEINY 02 Mar 10:28:25 10:37:10 66° 282° (WNW) 10:45:55 435.215
DELFI C3 02 Mar 10:29:09 10:32:41 32° 289° (WNW) 10:36:12 145.870
DUCHIFAT 1 02 Mar 10:33:59 10:37:57 42° 71° (ENE) 10:41:58 145.980
EO-79 02 Mar 10:51:10 10:55:24 79° 76° (ENE) 10:59:41 145.935-145.965
Oscar 19 02 Mar 10:53:24 10:53:53 10° 55° (NE) 10:54:22 437.125/150
AIST 2D 02 Mar 10:55:35 10:59:03 48° 261° (W) 11:02:32 435.315
LO-87 02 Mar 11:04:01 11:07:38 80° 102° (ESE) 11:11:16 145.935 - 145.965
NANOSAT C BR1 02 Mar 11:04:34 11:08:47 80° 257° (WSW) 11:13:03 145.865
BUGSAT 1 02 Mar 11:08:21 11:12:03 34° 70° (ENE) 11:15:50 437.445
SPROUT 02 Mar 11:08:38 11:09:25 10° 89° (E) 11:10:11 437.525
POLYITAN 1 02 Mar 11:10:32 11:14:45 63° 259° (WSW) 11:19:02 437.675
QB50P2 02 Mar 11:13:52 11:18:01 53° 260° (W) 11:22:13 145.880/145.840
FO-29 02 Mar 11:29:59 11:35:38 23° 272° (W) 11:41:35 435.910
ESTCUBE 1 02 Mar 11:39:22 11:43:53 87° 103° (ESE) 11:48:21 437.505/2401.250
VELOX 1 02 Mar 11:40:27 11:44:19 29° 96° (E) 11:48:10 145.980
ISS 02 Mar 11:40:37 11:43:54 59° 30° (NNE) 11:47:09 437.550
AO-7 02 Mar 11:48:44 11:48:54 10° 37° (NE) 11:49:05 .
Tancredo 1 02 Mar 11:51:27 11:54:42 77° 32° (NNE) 11:57:56 437.200
AO-85 02 Mar 11:53:18 11:57:10 63° 239° (WSW) 12:01:06 145.980
DUCHIFAT 1 02 Mar 12:11:00 12:13:49 17° 268° (W) 12:16:40 145.980
Gurwin Techsat 1B 02 Mar 12:18:47 12:23:33 35° 67° (ENE) 12:28:20 435.225
Oscar 19 02 Mar 12:27:10 12:32:17 72° 73° (ENE) 12:37:24 437.125/150
YUBILEINY 02 Mar 12:31:41 12:35:55 14° 305° (NW) 12:40:11 435.215
50 SAT 02 Mar 12:41:23 12:44:52 76° 284° (WNW) 12:48:19 437.505
SPROUT 02 Mar 12:41:30 12:45:49 73° 285° (WNW) 12:50:06 437.525
BUGSAT 1 02 Mar 12:44:29 12:47:31 20° 267° (W) 12:50:36 437.445
DX 1 02 Mar 12:48:58 12:53:20 69° 102° (ESE) 12:57:41 434.975-435.025
UKube-1 02 Mar 12:49:35 12:53:48 49° 100° (E) 12:57:59 .
BEESAT 3 02 Mar 12:54:01 12:57:49 39° 50° (NE) 13:01:35 437.485
ITAMSAT 1 02 Mar 13:14:48 13:18:45 22° 62° (ENE) 13:22:43 435.822/435.867
VELOX 1 02 Mar 13:16:56 13:20:41 28° 293° (WNW) 13:24:26 145.980
ISS 02 Mar 13:17:44 13:20:06 18° 226° (SW) 13:22:26 437.550
ESTCUBE 1 02 Mar 13:18:57 13:19:58 11° 301° (WNW) 13:21:00 437.505/2401.250
PCSat 02 Mar 13:26:08 13:28:00 12° 102° (ESE) 13:29:51 145.827
Tancredo 1 02 Mar 13:28:54 13:30:33 13° 229° (SW) 13:32:13 437.200
AO-7 02 Mar 13:31:47 13:39:24 41° 59° (ENE) 13:47:00 .
ITUPSAT 1 02 Mar 13:33:50 13:34:40 10° 88° (E) 13:35:29 437.325
BEESAT 02 Mar 13:35:49 13:37:23 11° 89° (E) 13:38:57 436.000
BEESAT 2 02 Mar 13:44:56 13:48:56 54° 53° (NE) 13:52:53 435.950
Gurwin Techsat 1B 02 Mar 13:58:47 14:03:29 32° 264° (W) 14:08:13 435.225
Oscar 19 02 Mar 14:09:24 14:12:06 14° 270° (W) 14:14:50 437.125/150
